Content
SEND FEEDBACK

Daily
Averages
Monthly
Summary
United Kingdom

ANDOVER, ENGLAND


Home > Europe > United Kingdom > England
Elevation: 407 feet     Latitude: 51 09N     Longitude: 001 44W

WEATHER
 
SELECT A DAY
Number of Records: 171,647;   Date Range: 7/1/96 - 9/1/14
 
SHARE

PRINT THIS DATA

[ ← Previous Day ]
WEATHER ALMANAC - SEPTEMBER 8, 2013
[ Next Day → ]
[ °C ]   °F
Weather ElementAverageHighLow
Temperature49.6 °F59 °F (2:50 pm) (5:50 am)
Dewpoint45.4 °F50 °F (12:50 pm) (7:00 pm)
Humidity85.6 %100 % (12:50 am)50 % (3:50 pm)
Barometer30.05 in30.08 in (9:50 pm)30.04 in (12:50 am)
Wind Speed6.5 mph12.7 mph (11:50 am)
Weather ElementAverage
Visibility8.4 mi
Wind DirectionSSW (192.7 °)

Weather ElementTotal
Precipitation---
Heating Degree Days35.5 (Base 65)
Averaged from 30 records on September 8, 2013
WEATHER CONDITIONS BREAKOUT
WIND DIRECTION BREAKOUT
WEATHER BY HOUR - SEPTEMBER 8, 2013
[ °C ]   °F
Local TimeTemperatureDewpointHumidityBarometerVisibilityWind DirectionWind SpeedGust SpeedPrecipitationEventsConditions
12:50 AM46.4 °F46.4 °F100 %30.04 in0.9 miSSE (160°)4.6 mphMostly Cloudy
1:50 AM46.4 °F46.4 °F100 %30.04 in5.6 miSSW (200°)4.6 mphScattered Clouds
2:50 AM44.6 °F44.6 °F100 %30.04 in0.1 miESE (110°)4.6 mphFogFog
3:50 AM44.0 °F44.0 °F99 %30.06 in0.0 miSSE (150°)2.3 mphFogFog
3:50 AM44.6 °F44.6 °F100 %30.04 in0.3 miSSE (150°)2.3 mphFogFog
4:50 AM44.6 °F44.6 °F100 %30.04 in0.2 miSW (220°)2.3 mphFogFog
5:50 AM0.0 °F0.0 °F30.04 in0.2 miEast (90°)2.3 mphFogFog
6:50 AM42.8 °F42.8 °F100 %30.04 in0.3 miEast (100°)4.6 mphFogFog
7:50 AM44.6 °F44.6 °F100 %30.06 in6.2 miSouth (180°)3.5 mphMostly Cloudy
8:50 AM50.0 °F46.4 °F87 %30.06 in6.2 miSSW (210°)4.6 mphScattered Clouds
9:50 AM54.0 °F48.0 °F75 %30.07 in31.0 miSouth (190°)8.1 mphPartly Cloudy
9:50 AM53.6 °F48.2 °F82 %30.06 in6.2 miSouth (190°)8.1 mphScattered Clouds
10:50 AM55.4 °F48.2 °F77 %30.06 in6.2 miSW (220°)11.5 mphMostly Cloudy
11:50 AM55.4 °F46.4 °F72 %30.06 in6.2 miSSW (210°)12.7 mphScattered Clouds
12:50 PM53.6 °F50.0 °F88 %30.06 in6.2 miSW (220°)8.1 mphMostly Cloudy
12:50 PM54.0 °F49.0 °F79 %30.07 in16.0 miSW (220°)8.1 mphRainRain
1:50 PM57.2 °F48.2 °F72 %30.04 in6.2 miSSW (200°)10.4 mphMostly Cloudy
2:50 PM59.0 °F44.6 °F59 %30.04 in6.2 miWSW (240°)8.1 mphMostly Cloudy
3:50 PM58.0 °F44.0 °F50 %30.05 in31.0 miSW (230°)9.2 mphScattered Clouds
3:50 PM59.0 °F44.6 °F59 %30.04 in6.2 miSW (230°)9.2 mphMostly Cloudy
4:50 PM57.2 °F48.2 °F72 %30.04 in6.2 miSSW (210°)12.7 mphMostly Cloudy
5:50 PM55.4 °F50.0 °F82 %30.04 in6.2 miSouth (190°)10.4 mphMostly Cloudy
6:50 PM55.4 °F50.0 °F82 %30.04 in6.2 miSSW (200°)9.2 mphMostly Cloudy
6:50 PM55.0 °F50.0 °F79 %30.05 in31.0 miSSW (200°)9.2 mphMostly Cloudy
7:50 PM53.6 °F50.0 °F88 %30.04 in6.2 miWSW (250°)4.6 mphScattered Clouds
8:50 PM50.0 °F50.0 °F100 %30.06 in6.2 miSW (230°)3.5 mphMostly Cloudy
9:50 PM49.0 °F47.0 °F92 %30.08 in31.0 miSouth (190°)4.6 mphMostly Cloudy
9:50 PM50.0 °F48.2 °F94 %30.06 in6.2 miSouth (190°)4.6 mphMostly Cloudy
10:50 PM48.2 °F46.4 °F93 %30.06 in6.2 miSSW (200°)4.6 mphPartly Cloudy
11:50 PM46.4 °F46.4 °F100 %30.06 in6.2 miSSW (200°)3.5 mphScattered Clouds
Hourly data recorded from EGDM, located miles away from Andover, England







STORIES FROM OUR PARTNERS